Погода в Дзарджане

Погода в Дзарджане : погода сейчас, прогноз погоды и архив. Всё, что Вы хотите узнать о погоде в Дзарджане!

Поиск расширенной информации на нашем сайте:

Другие новости

Новости СМИ2

Главная страница сайта

Новости сайта

02.10.2013

Напоминаем, что на нашем новом сайте вы можете получить высокодетализированные прогнозы погоды по пунктам России, СНГ и мира (включающие важные для авиации метеовеличины, такие как направление и скорость ветра, видимость, явления погоды, количество и форма облачности, нижняя и верхняя граница облачности), а также ознакомиться с разнообразными материалами по авиационной метеорологии и подборкой полезных ссылок на эту тему.

Сайт Метеоцентр.Азия посвящён разработке технологий оптимизации авиаметеорологического обслуживания, включая проектирование и перспективное создание нескольких автоматизированных авиаметеорологических систем:
- система выпуска высокодетальных прогностических карт явлений погоды для нижнего воздушного пространства по России и ближнему зарубежью;
- система верификации прогнозов TAF (выпускаемых синоптиками официальных АМСГ РФ и ближнего зарубежья) и AUTOTAF (выпускаемых сайтом Метеоцентр.Азия) - выявление ошибок, онлайн-сопоставление с фактической погодой METAR, автоматическое внесение коррективов в прогнозы при резком отклонении фактической погоды от прогноза, подсчёт оправдываемости прогнозов по элементам и в целом;
- система обработки, анализа и отображения авиаметеорологической информации для применения провайдерами метеорологической информации.


Погода в Дзарджане - сегодня

Время (UTC), дата Ветер
(°,м/с) 
Видим.   Явления Облачность Т
(°С)
Тd
(°С)
f(%) Тe
(°С)
Pmin
(гПа)
dP
(гПа)
Po
(мм)
O2
(г/м3)
Тmin Tmax R s Состояние
почвы
12 22.04.17 050 (СВ) 20000 м    10/0 средняя, верхняя 
[Ac trans|Ci fib]
+5.5 -1.9 59 +6  1017.9  0.9  760  300    +7.6       
15 22.04.17 050 (СВ) 20000 м    10/0 средняя 
[As op]
+2.1 -2.9 69 +1  1019.1  1.2  761  305           
18 22.04.17 050 (СВ) 20000 м    10/0 средняя 
[As op]
+1.3 -3.5 70 +1  1020.5  1.3  762  306           
00 23.04.17 050 (СВ) 20000 м    10/0 средняя 
[As op]
-2.5 -5.1 82 -4  1023.2  -17.2  764  311  -2.5    мокрый или
старый снег
50-90% 
03 23.04.17 050 (СВ) 20000 м  {снег}  10/10 600 м 
[Ns]
-1.3 -4.9 76 -2  1023.8  0.6  764  310           
06 23.04.17 360 (С) 20000 м  {снег}  8/8 600 м 
[Cu med, cong]
+1.8 -3.6 67 +3  1024.4  0.6  765  307           
09 23.04.17 360 (С) 20000 м    8/8 600 м 
[Sc]
+3.9 -0.7 72 +5  1024.4  0.1  765  304           
12 23.04.17 тихо ()   20000 м    ясно 
+1.3 -3.2 72 +1  1025.1  0.6  765  307    +4.1  0.2     
15 23.04.17 230 (ЮЗ) 20000 м    ясно 
-0.3 -9 52 -2  1025.1  765  310           
18 23.04.17 230 (ЮЗ) 20000 м    ясно 
-5 -10.4 66 -6  1025.6  0.4  765  315           
21 23.04.17 тихо ()   20000 м    ясно 
-5.1 -11.5 61 -5  1026.4  0.8  766  316           
00 24.04.17 230 (ЮЗ) 20000 м    ясно 
-3.1 -10.3 57 -3  1025.4  -1  765  313  -5.8      мокрый или
старый снег
50-90% 
03 24.04.17 230 (ЮЗ) 20000 м    ясно 
+2.2 -12.5 33 +1  1023.3  -2  764  306           
06 24.04.17 230 (ЮЗ) 20000 м    ясно 
+3.3 -0.1 78 +1  1021  -2.2  762  303           
09 24.04.17 230 (ЮЗ) 20000 м    3/0 средняя 
[As op]
+3.8 -8 42 +1  1019.7  -1.3  761  303           
12 24.04.17 230 (ЮЗ) 20000 м    10/0 средняя 
[As op]
+2.8 -7.8 46 1019.8  0.1  761  304    +4.2       
15 24.04.17 230 (ЮЗ) 20000 м    3/0 средняя 
[As op]
+0.9 -6.3 59 -3  1019.8  -0.1  761  306           
21 24.04.17 230 (ЮЗ) 20000 м    9/9 1000 м 
[Sc]
-0.8 -4.6 75 -2  1020.4  0.7  762  308           
00 25.04.17 тихо ()   20000 м    9/9 600 м 
[Sc]
+1 -3.6 71 +1  1021.8  1.4  763  307  -1      мокрый или
старый снег
50-90% 
03 25.04.17 тихо ()   20000 м    8/3 600 м средняя 
[Sc|Ac trans]
+2.3 -3 68 +2  1022.1  0.4  763  305           
06 25.04.17 тихо ()   20000 м    4/4 600 м 
[Cu med, cong]
+4.4 -4.9 51 +4  1021.6  -0.5  763  303           
09 25.04.17 тихо ()   20000 м    8/8 600 м 
[Cu med, cong]
+4.8 -4.7 50 +5  1020.3  -1.3  762  302           
12 25.04.17 тихо ()   20000 м    3/3 600 м 
[Cu med, cong]
+1.6 -5.7 58 +2  1018.8  -1.6  760  305    +5.1       
15 25.04.17 тихо ()   20000 м    ясно 
-2.2 -5.6 77 -2  1016.5  -2.3  759  309           
18 25.04.17 тихо ()   20000 м    ясно 
-4.5 -6.1 89 -5  1014.7  -1.9  757  311           
Время (UTC), дата Ветер
(°,м/с) 
Видим.   Явления Облачность Т
(°С)
Тd
(°С)
f(%) Тe
(°С)
Pmin
(гПа)
dP
(гПа)
Po
(мм)
O2
(г/м3)
Тmin Tmax R s Состояние
почвы

Для получения пояснительной информации подведите курсор к названию столбца.

ПОГОДА в Дзарджане - архив

Всё, что Вы хотите узнать о погоде в Дзарджане - удобно и подробно!

Выберите нужную дату (начиная с 1 января 2015* года) и нажмите кнопку "Найти".
Будут отображены архивные сводки погоды по пункту Дзарджан, начиная с указанной даты.


Отображать данные в формате CSV (для использования в таблицах Excel)


Внимание! Наш архив погоды предназначен исключительно для личного некоммерческого использования в познавательных целях. Если Вам необходимы официальные справки о состоянии погоды (для производственных, юридических, коммерческих и т.п. целей), обращайтесь в органы Росгидромета.

*Примечание: данная дата относится к архиву по метеостанциям СССР (Россия, СНГ, Балтия).
Архив по метеостанциям Зарубежной Европы и Азии (кроме Китая) хранится 10 дней, по другим регионам земного шара (Китай, Африка, Америка, Австралия, Океания) - 1 день.

Дзарджан - район местоположения метеостанции


Название, широта, долгота, высота метеостанции:
Дзарджан 68.7°ш. 124°д. 39 м над ур. моря [Российская Федерация]

Дополнительная информация

В oтличие oт бoльшинства пoгoдных сайтoв мы публикуем пoдрoбную метеoинфoрмацию в детальнoм прoфессиoнальнoм фoрмате.

Характеристики температуры и влажнoсти вoздуха измеряются на высoте 2 м в тени вдали oт зданий и деревьев.
Скoрoсть ветра измеряется на высoте 10 м (на урoвне рoста челoвека скoрoсть ветра ниже в 1.5-2 раза). Если метеoстанция нахoдится в гoрoде или в лесу, тo скoрoсть ветра занижена на 2-4 м/с пo сравнению с oткрытым местoм. Скoрoсть ветра над акватoриями крупных рек и oзёр, а также на вершинах хoлмoв на 2-5 м/с выше, чем в oбычных услoвиях.
Атмoсфернoе давление в разных тoчках местнoсти мoжет значительнo oтличаться oт давления на метеoстанции, в зависимoсти oт услoвий рельефа (при пoдъёме на 10 м давление пoнижается примернo на 1 мм рт.ст.).